BER109 EVRA-EDDB

Flight info

Callsign BER109
Flight time 1h 26m
Altitude 36000
Route VALED DCT ADAXA DCT NINTA DCT DIPEB DCT GOSOT Z131 BANUB DCT USEDU/N0462F370 Z14 BEKBA T280 KETAP KETAP1R
Aircraft B738/M-SDE2E3FGHIRWXY/LB1

Departure

Time 2026-05-06 12:44
Airport Riga International Airport (EVRA)

Arrival

Time 2026-05-06 14:10
Airport Berlin Brandenburg Airport (EDDB)
Time Latitude Longitude Altitude Speed Heading
2026-05-06 12:24 56.92191 23.97669 34 ft 0 kts
2026-05-06 12:24 56.92188 23.97669 34 ft 0 kts
2026-05-06 12:36 56.92172 23.97666 56 ft 2 kts
2026-05-06 12:37 56.92149 23.97666 30 ft 4 kts 338°
2026-05-06 12:37 56.92132 23.97694 34 ft 4 kts 284°
2026-05-06 12:37 56.92130 23.97713 34 ft 0 kts 275°
2026-05-06 12:39 56.92130 23.97712 34 ft 1 kts 275°
2026-05-06 12:40 56.92137 23.97579 34 ft 15 kts 275°
2026-05-06 12:40 56.92082 23.97455 34 ft 15 kts 188°
2026-05-06 12:40 56.91957 23.97440 34 ft 23 kts 182°
2026-05-06 12:40 56.91794 23.97418 34 ft 24 kts 185°
2026-05-06 12:41 56.91617 23.97388 34 ft 27 kts 185°
2026-05-06 12:41 56.91441 23.97358 34 ft 25 kts 185°
2026-05-06 12:41 56.91274 23.97331 34 ft 23 kts 185°
2026-05-06 12:41 56.91113 23.97305 34 ft 27 kts 184°
2026-05-06 12:42 56.90948 23.97218 34 ft 23 kts 207°
2026-05-06 12:42 56.90793 23.97160 34 ft 22 kts 184°
2026-05-06 12:42 56.90656 23.97072 34 ft 22 kts 237°
2026-05-06 12:42 56.90691 23.96853 35 ft 19 kts 345°
2026-05-06 12:43 56.90747 23.96854 34 ft 0 kts
2026-05-06 12:43 56.90748 23.96854 34 ft 1 kts
2026-05-06 12:43 56.90938 23.96887 34 ft 68 kts
2026-05-06 12:43 56.91668 23.97009 36 ft 139 kts
2026-05-06 12:44 56.92754 23.97184 658 ft 151 kts
2026-05-06 12:44 56.93807 23.97380 1762 ft 157 kts
2026-05-06 12:44 56.94938 23.97630 2464 ft 175 kts 13°
2026-05-06 12:44 56.96137 23.97711 2731 ft 181 kts 353°
2026-05-06 12:45 56.97315 23.96503 3264 ft 217 kts 315°
2026-05-06 12:45 56.98027 23.93783 3156 ft 252 kts 279°
2026-05-06 12:45 56.96721 23.88085 3006 ft 255 kts 227°
2026-05-06 12:46 56.95572 23.85581 3013 ft 256 kts 229°
2026-05-06 12:46 56.94455 23.83071 2997 ft 256 kts 229°
2026-05-06 12:46 56.93337 23.80494 3021 ft 261 kts 230°
2026-05-06 12:46 56.92310 23.77668 2986 ft 272 kts 249°
2026-05-06 12:47 56.92137 23.74261 3011 ft 272 kts 281°
2026-05-06 12:47 56.92553 23.70850 3027 ft 277 kts 284°
2026-05-06 12:47 56.92990 23.67429 2971 ft 281 kts 280°
2026-05-06 12:47 56.92853 23.63922 3031 ft 277 kts 250°
2026-05-06 12:48 56.92051 23.60693 2981 ft 278 kts 241°
2026-05-06 12:48 56.91149 23.57607 3010 ft 273 kts 241°
2026-05-06 12:48 56.90262 23.54566 2989 ft 267 kts 240°
2026-05-06 12:48 56.89393 23.51578 3014 ft 267 kts 240°
2026-05-06 12:49 56.88522 23.48544 3016 ft 269 kts 240°
2026-05-06 12:49 56.87593 23.45618 3023 ft 272 kts 234°
2026-05-06 12:49 56.86482 23.42767 3620 ft 275 kts 232°
2026-05-06 12:49 56.85361 23.39980 4946 ft 267 kts 232°
2026-05-06 12:50 56.84268 23.37251 6084 ft 265 kts 233°
2026-05-06 12:50 56.83199 23.34558 7082 ft 266 kts 234°
2026-05-06 12:50 56.82118 23.31808 8105 ft 266 kts 234°
2026-05-06 12:50 56.81026 23.29026 9063 ft 269 kts 235°
2026-05-06 12:51 56.80306 23.27191 9773 ft 268 kts 235°
2026-05-06 12:51 56.79201 23.24373 10480 ft 280 kts 234°
2026-05-06 12:51 56.78075 23.19855 10769 ft 317 kts 258°
2026-05-06 12:51 56.77711 23.15719 10957 ft 342 kts 260°
2026-05-06 12:52 56.77483 23.12810 11119 ft 356 kts 260°
2026-05-06 12:52 56.77136 23.08259 11690 ft 366 kts 260°
2026-05-06 12:52 56.76782 23.03636 12489 ft 368 kts 259°
2026-05-06 12:52 56.76420 22.99011 13316 ft 370 kts 259°
2026-05-06 12:53 56.76048 22.94359 14077 ft 373 kts 258°
2026-05-06 12:53 56.75665 22.89663 14763 ft 376 kts 258°
2026-05-06 12:53 56.75275 22.84928 15439 ft 379 kts 258°
2026-05-06 12:53 56.74878 22.80159 16115 ft 382 kts 258°
2026-05-06 12:54 56.74480 22.75404 16776 ft 384 kts 258°
2026-05-06 12:54 56.74075 22.70575 17429 ft 387 kts 258°
2026-05-06 12:54 56.73662 22.65688 18063 ft 391 kts 258°
2026-05-06 12:54 56.73245 22.60771 18632 ft 394 kts 258°
2026-05-06 12:55 56.72825 22.55820 19176 ft 397 kts 258°
2026-05-06 12:55 56.72399 22.50839 19707 ft 399 kts 258°
2026-05-06 12:55 56.71965 22.45818 20216 ft 402 kts 257°
2026-05-06 12:55 56.71492 22.40845 20719 ft 405 kts 256°
2026-05-06 12:56 56.70969 22.35783 21219 ft 407 kts 256°
2026-05-06 12:56 56.70425 22.30679 21710 ft 410 kts 256°
2026-05-06 12:56 56.69877 22.25568 22169 ft 413 kts 256°
2026-05-06 12:56 56.69331 22.20480 22600 ft 416 kts 256°
2026-05-06 12:57 56.68775 22.15275 23046 ft 419 kts 256°
2026-05-06 12:57 56.68217 22.10039 23483 ft 422 kts 256°
2026-05-06 12:57 56.67655 22.04767 23863 ft 424 kts 256°
2026-05-06 12:57 56.67097 21.99547 24239 ft 426 kts 256°
2026-05-06 12:58 56.66528 21.94233 24617 ft 428 kts 255°
2026-05-06 12:58 56.65956 21.88908 24984 ft 430 kts 255°
2026-05-06 12:58 56.65377 21.83550 25330 ft 432 kts 255°
2026-05-06 12:58 56.64793 21.78172 25678 ft 434 kts 255°
2026-05-06 12:59 56.64212 21.72839 26010 ft 436 kts 255°
2026-05-06 12:59 56.63619 21.67418 26319 ft 438 kts 255°
2026-05-06 12:59 56.63020 21.61969 26617 ft 440 kts 255°
2026-05-06 12:59 56.62418 21.56509 26925 ft 442 kts 255°
2026-05-06 13:00 56.61869 21.51560 27283 ft 442 kts 255°
2026-05-06 13:00 56.61270 21.46163 27745 ft 439 kts 255°
2026-05-06 13:00 56.60662 21.40715 28246 ft 437 kts 255°
2026-05-06 13:00 56.60052 21.35273 28715 ft 436 kts 255°
2026-05-06 13:01 56.59453 21.29955 29130 ft 435 kts 255°
2026-05-06 13:01 56.58842 21.24556 29564 ft 435 kts 255°
2026-05-06 13:01 56.58230 21.19177 30002 ft 434 kts 255°
2026-05-06 13:01 56.57619 21.13821 30391 ft 433 kts 255°
2026-05-06 13:02 56.57014 21.08541 30793 ft 431 kts 255°
2026-05-06 13:02 56.56403 21.03222 31206 ft 429 kts 254°
2026-05-06 13:02 56.55792 20.97930 31586 ft 427 kts 254°
2026-05-06 13:02 56.55179 20.92646 31946 ft 427 kts 254°
2026-05-06 13:03 56.54574 20.87447 32318 ft 425 kts 254°
2026-05-06 13:03 56.53962 20.82210 32720 ft 423 kts 254°
2026-05-06 13:03 56.53349 20.76990 33088 ft 422 kts 254°
2026-05-06 13:03 56.52736 20.71783 33459 ft 421 kts 253°
2026-05-06 13:04 56.52130 20.66660 33830 ft 420 kts 253°
2026-05-06 13:04 56.51517 20.61491 34157 ft 418 kts 253°
2026-05-06 13:04 56.50902 20.56333 34385 ft 419 kts 253°
2026-05-06 13:04 56.50283 20.51165 34585 ft 420 kts 253°
2026-05-06 13:05 56.49666 20.46024 34843 ft 420 kts 253°
2026-05-06 13:05 56.49042 20.40851 35108 ft 420 kts 253°
2026-05-06 13:05 56.48416 20.35673 35336 ft 421 kts 253°
2026-05-06 13:05 56.47785 20.30478 35571 ft 421 kts 253°
2026-05-06 13:06 56.47164 20.25377 35828 ft 420 kts 253°
2026-05-06 13:06 56.45890 20.14988 35935 ft 424 kts 253°
2026-05-06 13:07 56.44608 20.04601 35937 ft 421 kts 253°
2026-05-06 13:07 56.43323 19.94263 35930 ft 420 kts 253°
2026-05-06 13:08 56.42046 19.84068 35932 ft 418 kts 253°
2026-05-06 13:08 56.40750 19.73796 35942 ft 418 kts 253°
2026-05-06 13:09 56.39455 19.63612 35935 ft 419 kts 253°
2026-05-06 13:09 56.38138 19.53328 35938 ft 421 kts 253°
2026-05-06 13:10 56.36813 19.43055 35940 ft 423 kts 252°
2026-05-06 13:10 56.35465 19.32672 35936 ft 425 kts 252°
2026-05-06 13:11 56.34104 19.22264 35939 ft 426 kts 252°
2026-05-06 13:11 56.32741 19.11910 35933 ft 428 kts 252°
2026-05-06 13:12 56.31358 19.01467 35934 ft 428 kts 252°
2026-05-06 13:12 56.29963 18.91013 35935 ft 429 kts 252°
2026-05-06 13:13 56.28704 18.80551 35939 ft 430 kts 255°
2026-05-06 13:13 56.27600 18.70250 35934 ft 431 kts 255°
2026-05-06 13:14 56.26446 18.59730 35936 ft 431 kts 255°
2026-05-06 13:14 56.25252 18.49148 35932 ft 431 kts 254°
2026-05-06 13:15 56.24051 18.38617 35931 ft 432 kts 254°
2026-05-06 13:15 56.22828 18.28033 35930 ft 431 kts 253°
2026-05-06 13:16 56.21325 18.17658 35936 ft 430 kts 251°
2026-05-06 13:16 56.19741 18.07267 35929 ft 431 kts 251°
2026-05-06 13:17 56.17803 17.97140 35929 ft 426 kts 240°
2026-05-06 13:17 56.14575 17.88376 35935 ft 422 kts 231°
2026-05-06 13:18 56.11034 17.80012 35927 ft 423 kts 230°
2026-05-06 13:18 56.07470 17.71587 35928 ft 423 kts 231°
2026-05-06 13:19 56.03938 17.63197 35931 ft 424 kts 231°
2026-05-06 13:19 56.00374 17.54728 35927 ft 425 kts 231°
2026-05-06 13:20 55.96823 17.46315 35928 ft 426 kts 231°
2026-05-06 13:20 55.93236 17.37843 35924 ft 427 kts 231°
2026-05-06 13:21 55.89651 17.29408 35926 ft 428 kts 231°
2026-05-06 13:21 55.86040 17.20941 35923 ft 429 kts 231°
2026-05-06 13:22 55.82412 17.12464 35925 ft 429 kts 231°
2026-05-06 13:22 55.78796 17.04045 35923 ft 430 kts 231°
2026-05-06 13:23 55.75168 16.95626 35922 ft 430 kts 231°
2026-05-06 13:23 55.71519 16.87189 35924 ft 430 kts 231°
2026-05-06 13:24 55.67994 16.79064 35921 ft 430 kts 231°
2026-05-06 13:24 55.64325 16.70637 35919 ft 431 kts 231°
2026-05-06 13:25 55.60675 16.62282 35920 ft 431 kts 230°
2026-05-06 13:25 55.57020 16.53943 35919 ft 431 kts 230°
2026-05-06 13:26 55.53330 16.45555 35918 ft 431 kts 230°
2026-05-06 13:26 55.49651 16.37219 35917 ft 432 kts 230°
2026-05-06 13:27 55.45941 16.28844 35918 ft 432 kts 230°
2026-05-06 13:27 55.42250 16.20537 35915 ft 432 kts 230°
2026-05-06 13:28 55.38529 16.12192 35915 ft 432 kts 230°
2026-05-06 13:28 55.34824 16.03912 35912 ft 433 kts 230°
2026-05-06 13:29 55.31087 15.95588 35914 ft 433 kts 230°
2026-05-06 13:29 55.27442 15.87496 35914 ft 432 kts 230°
2026-05-06 13:30 55.23729 15.79280 35907 ft 432 kts 230°
2026-05-06 13:30 55.19985 15.71024 35909 ft 432 kts 230°
2026-05-06 13:31 55.16236 15.62783 35910 ft 432 kts 230°
2026-05-06 13:31 55.12506 15.54615 35909 ft 431 kts 230°
2026-05-06 13:32 55.08753 15.46420 35907 ft 431 kts 230°
2026-05-06 13:32 55.04990 15.38232 35906 ft 431 kts 230°
2026-05-06 13:33 55.01248 15.30117 35909 ft 431 kts 230°
2026-05-06 13:33 54.97477 15.21964 35907 ft 431 kts 230°
2026-05-06 13:34 54.93721 15.13871 35906 ft 431 kts 230°
2026-05-06 13:34 54.89938 15.05747 35907 ft 431 kts 230°
2026-05-06 13:35 54.86257 14.97866 35911 ft 432 kts 230°
2026-05-06 13:35 54.82459 14.89759 35907 ft 432 kts 230°
2026-05-06 13:36 54.78446 14.82088 35907 ft 431 kts 223°
2026-05-06 13:36 54.74055 14.74949 35894 ft 432 kts 223°
2026-05-06 13:37 54.69668 14.67825 35893 ft 432 kts 223°
2026-05-06 13:37 54.65304 14.60704 35892 ft 433 kts 223°
2026-05-06 13:38 54.60941 14.53586 35897 ft 433 kts 223°
2026-05-06 13:38 54.56546 14.46438 35893 ft 434 kts 223°
2026-05-06 13:39 54.52088 14.39436 35885 ft 434 kts 217°
2026-05-06 13:39 54.46803 14.34555 35886 ft 434 kts 202°
2026-05-06 13:40 54.41152 14.30827 35885 ft 434 kts 202°
2026-05-06 13:40 54.35530 14.27121 35876 ft 434 kts 202°
2026-05-06 13:41 54.29899 14.23368 35887 ft 434 kts 202°
2026-05-06 13:41 54.24247 14.19586 35889 ft 437 kts 202°
2026-05-06 13:42 54.18590 14.15806 35867 ft 440 kts 202°
2026-05-06 13:42 54.12887 14.12008 35844 ft 439 kts 202°
2026-05-06 13:43 54.07221 14.08247 35853 ft 433 kts 202°
2026-05-06 13:43 54.04430 14.06399 35733 ft 425 kts 202°
2026-05-06 13:43 54.02785 14.05311 35526 ft 420 kts 202°
2026-05-06 13:43 53.99151 14.02912 34886 ft 415 kts 202°
2026-05-06 13:44 53.96460 14.01136 34427 ft 412 kts 202°
2026-05-06 13:44 53.93800 13.99383 34003 ft 408 kts 202°
2026-05-06 13:44 53.92050 13.98231 33713 ft 406 kts 202°
2026-05-06 13:44 53.89421 13.96503 33209 ft 403 kts 202°
2026-05-06 13:45 53.86811 13.94789 32682 ft 401 kts 202°
2026-05-06 13:45 53.81623 13.91389 31748 ft 397 kts 202°
2026-05-06 13:45 53.79043 13.89701 31260 ft 395 kts 201°
2026-05-06 13:46 53.76510 13.88047 30793 ft 393 kts 201°
2026-05-06 13:46 53.73960 13.86384 30324 ft 391 kts 201°
2026-05-06 13:46 53.71431 13.84737 29865 ft 389 kts 201°
2026-05-06 13:46 53.68901 13.83092 29335 ft 387 kts 201°
2026-05-06 13:47 53.66400 13.81467 28872 ft 383 kts 201°
2026-05-06 13:47 53.63920 13.79859 28406 ft 379 kts 201°
2026-05-06 13:47 53.61496 13.78289 27925 ft 376 kts 201°
2026-05-06 13:47 53.59051 13.76707 27447 ft 374 kts 201°
2026-05-06 13:48 53.56630 13.75142 26991 ft 371 kts 201°
2026-05-06 13:48 53.54230 13.73593 26555 ft 368 kts 201°
2026-05-06 13:48 53.51848 13.72057 26119 ft 365 kts 201°
2026-05-06 13:48 53.49487 13.70537 25697 ft 362 kts 201°
2026-05-06 13:49 53.47159 13.69040 25269 ft 360 kts 202°
2026-05-06 13:49 53.44827 13.67541 24850 ft 358 kts 202°
2026-05-06 13:49 53.42506 13.66052 24439 ft 355 kts 202°
2026-05-06 13:49 53.40198 13.64573 24042 ft 353 kts 202°
2026-05-06 13:50 53.37916 13.63112 23649 ft 350 kts 202°
2026-05-06 13:50 53.35670 13.61676 23226 ft 348 kts 202°
2026-05-06 13:50 53.33416 13.60236 22778 ft 345 kts 202°
2026-05-06 13:50 53.31181 13.58810 22371 ft 342 kts 202°
2026-05-06 13:51 53.28962 13.57396 21955 ft 339 kts 202°
2026-05-06 13:51 53.26763 13.55996 21529 ft 336 kts 202°
2026-05-06 13:51 53.24579 13.54607 21122 ft 334 kts 202°
2026-05-06 13:51 53.22446 13.53252 20721 ft 331 kts 203°
2026-05-06 13:52 53.20300 13.51890 20318 ft 329 kts 203°
2026-05-06 13:52 53.18162 13.50535 19926 ft 326 kts 203°
2026-05-06 13:52 53.16045 13.49195 19538 ft 324 kts 203°
2026-05-06 13:52 53.13942 13.47864 19146 ft 322 kts 203°
2026-05-06 13:53 53.11873 13.46557 18767 ft 320 kts 203°
2026-05-06 13:53 53.09796 13.45246 18392 ft 318 kts 203°
2026-05-06 13:53 53.07730 13.43943 18026 ft 316 kts 204°
2026-05-06 13:53 53.05681 13.42652 17614 ft 314 kts 204°
2026-05-06 13:54 53.03662 13.41381 17193 ft 312 kts 204°
2026-05-06 13:54 53.01632 13.40105 16776 ft 311 kts 204°
2026-05-06 13:54 52.99610 13.38835 16385 ft 309 kts 204°
2026-05-06 13:54 52.97595 13.37570 16013 ft 307 kts 204°
2026-05-06 13:55 52.95621 13.36334 15652 ft 306 kts 204°
2026-05-06 13:55 52.93626 13.35084 15348 ft 305 kts 204°
2026-05-06 13:55 52.91636 13.33839 15037 ft 304 kts 204°
2026-05-06 13:55 52.89658 13.32603 14789 ft 302 kts 203°
2026-05-06 13:56 52.87715 13.31388 14467 ft 303 kts 204°
2026-05-06 13:56 52.85733 13.30152 14132 ft 302 kts 204°
2026-05-06 13:56 52.83773 13.28932 13797 ft 299 kts 204°
2026-05-06 13:56 52.81834 13.27725 13388 ft 298 kts 204°
2026-05-06 13:57 52.79890 13.26515 12965 ft 297 kts 204°
2026-05-06 13:57 52.77950 13.25310 12573 ft 295 kts 204°
2026-05-06 13:57 52.76049 13.24130 12197 ft 294 kts 204°
2026-05-06 13:57 52.74134 13.22942 11814 ft 293 kts 204°
2026-05-06 13:58 52.72233 13.21764 11535 ft 287 kts 204°
2026-05-06 13:58 52.70400 13.20632 11292 ft 279 kts 204°
2026-05-06 13:58 52.68583 13.19507 10951 ft 278 kts 204°
2026-05-06 13:58 52.66799 13.18399 10618 ft 276 kts 204°
2026-05-06 13:59 52.65001 13.17283 10292 ft 275 kts 204°
2026-05-06 13:59 52.63209 13.16172 9982 ft 274 kts 204°
2026-05-06 13:59 52.61425 13.15065 9687 ft 273 kts 204°
2026-05-06 13:59 52.59647 13.13961 9334 ft 272 kts 204°
2026-05-06 14:00 52.57900 13.12874 8979 ft 271 kts 204°
2026-05-06 14:00 52.56142 13.11775 8658 ft 270 kts 204°
2026-05-06 14:00 52.54387 13.10670 8293 ft 268 kts 204°
2026-05-06 14:00 52.52643 13.09566 7959 ft 267 kts 204°
2026-05-06 14:01 52.50897 13.08521 7631 ft 268 kts 195°
2026-05-06 14:01 52.49089 13.08200 7546 ft 254 kts 186°
2026-05-06 14:01 52.47402 13.08096 7425 ft 239 kts 185°
2026-05-06 14:01 52.45756 13.08021 7115 ft 235 kts 185°
2026-05-06 14:02 52.44113 13.07950 6742 ft 235 kts 185°
2026-05-06 14:02 52.42483 13.07876 6397 ft 234 kts 185°
2026-05-06 14:02 52.40850 13.07796 6046 ft 233 kts 185°
2026-05-06 14:02 52.39227 13.07710 5656 ft 233 kts 184°
2026-05-06 14:03 52.37618 13.07607 5255 ft 234 kts 185°
2026-05-06 14:03 52.35995 13.07497 4887 ft 233 kts 181°
2026-05-06 14:03 52.34467 13.08145 4734 ft 222 kts 156°
2026-05-06 14:03 52.33121 13.09260 4574 ft 211 kts 155°
2026-05-06 14:04 52.31826 13.10329 4175 ft 212 kts 155°
2026-05-06 14:04 52.30501 13.11407 3747 ft 212 kts 154°
2026-05-06 14:04 52.29171 13.12457 3396 ft 212 kts 154°
2026-05-06 14:04 52.27889 13.13622 3077 ft 209 kts 136°
2026-05-06 14:05 52.27188 13.15645 3005 ft 209 kts 101°
2026-05-06 14:05 52.27287 13.17949 2967 ft 207 kts 66°
2026-05-06 14:05 52.28013 13.19953 2988 ft 206 kts 56°
2026-05-06 14:05 52.28818 13.21883 2976 ft 202 kts 55°
2026-05-06 14:06 52.29589 13.23714 2888 ft 189 kts 55°
2026-05-06 14:06 52.30300 13.25398 2809 ft 175 kts 55°
2026-05-06 14:06 52.30976 13.27002 2537 ft 170 kts 55°
2026-05-06 14:06 52.31657 13.28578 2219 ft 168 kts 53°
2026-05-06 14:07 52.32286 13.30137 2022 ft 164 kts 61°
2026-05-06 14:07 52.32781 13.31825 1999 ft 163 kts 65°
2026-05-06 14:07 52.33225 13.33556 2020 ft 167 kts 66°
2026-05-06 14:07 52.33673 13.35370 1906 ft 175 kts 67°
2026-05-06 14:08 52.34107 13.37201 1672 ft 167 kts 67°
2026-05-06 14:08 52.34495 13.38862 1481 ft 148 kts 66°
2026-05-06 14:08 52.34841 13.40329 1271 ft 133 kts 67°
2026-05-06 14:08 52.35171 13.41728 1099 ft 132 kts 66°
2026-05-06 14:09 52.35499 13.43123 912 ft 136 kts 66°
2026-05-06 14:09 52.35840 13.44564 705 ft 134 kts 66°
2026-05-06 14:09 52.36170 13.45957 512 ft 132 kts 66°
2026-05-06 14:09 52.36502 13.47373 331 ft 133 kts 65°
2026-05-06 14:10 52.36839 13.48798 171 ft 135 kts 65°
2026-05-06 14:10 52.37144 13.50079 158 ft 97 kts 69°
2026-05-06 14:10 52.37302 13.50813 157 ft 49 kts 84°
2026-05-06 14:10 52.37288 13.51172 161 ft 15 kts 100°
2026-05-06 14:11 52.37261 13.51313 161 ft 12 kts 138°
2026-05-06 14:11 52.37190 13.51270 158 ft 13 kts 244°
2026-05-06 14:11 52.37159 13.51135 158 ft 14 kts 248°
2026-05-06 14:11 52.37109 13.50928 158 ft 23 kts 249°
2026-05-06 14:12 52.37049 13.50676 157 ft 23 kts 250°
2026-05-06 14:12 52.36993 13.50435 154 ft 23 kts 251°
2026-05-06 14:12 52.36937 13.50203 152 ft 18 kts 248°
2026-05-06 14:12 52.36867 13.50132 149 ft 13 kts 167°
2026-05-06 14:13 52.36786 13.50183 152 ft 11 kts 163°
2026-05-06 14:13 52.36709 13.50164 150 ft 12 kts 187°
2026-05-06 14:13 52.36631 13.50202 150 ft 12 kts 158°
2026-05-06 14:13 52.36553 13.50250 150 ft 13 kts 159°
2026-05-06 14:14 52.36467 13.50307 150 ft 13 kts 159°
2026-05-06 14:14 52.36382 13.50359 150 ft 13 kts 159°
2026-05-06 14:14 52.36320 13.50398 150 ft 8 kts 159°
2026-05-06 14:14 52.36271 13.50429 150 ft 8 kts 159°
2026-05-06 14:15 52.36223 13.50459 150 ft 7 kts 159°
2026-05-06 14:15 52.36180 13.50487 150 ft 5 kts 154°
2026-05-06 14:15 52.36171 13.50543 151 ft 5 kts 73°
2026-05-06 14:15 52.36185 13.50599 152 ft 5 kts 68°
2026-05-06 14:16 52.36202 13.50669 153 ft 4 kts 68°
2026-05-06 14:16 52.36211 13.50704 154 ft 2 kts 68°
2026-05-06 14:16 52.36215 13.50722 154 ft 1 kts 68°
2026-05-06 14:16 52.36216 13.50725 154 ft 0 kts 68°
2026-05-06 14:17 52.36209 13.50696 153 ft 0 kts 69°